Regional Weather Roundup
Issued by NWS

Home | Current Version | Previous Version | Graphics & Text | Print | Product List | Glossary On
Versions: 1 2 3 4 5 6 7 8 9 10 11 12 13 14 15 16 17 18 19 20 21 22 23 24 25 26 27 28 29 30 31 32 33 34 35 36 37 38 39 40 41 42 43 44 45 46 47 48 49 50
000
ASUS43 KLSX 011110
RWRMO

WEATHER SUMMARY FOR MISSOURI
NATIONAL WEATHER SERVICE SPRINGFIELD MO
500 AM CST WED MAR 01 2017

NOTE: "FAIR" INDICATES FEW OR NO CLOUDS BELOW 12,000 FEET WITH NO
       SIGNIFICANT WEATHER AND/OR OBSTRUCTIONS TO VISIBILITY.
       CURRENT SKY AND/OR WEATHER CONDITIONS ARE NOT AVAILABLE FOR
       CHILLICOTHE AND FARMINGTON.

MOZ001>031-035>038-043-044-053-054-011200-
...NORTHERN AND WESTERN MISSOURI...

CITY           SKY/WX    TMP DP  RH WIND       PRES   REMARKS
KANSAS CTY INT CLOUDY    39  33  79 NW14G20   29.85R
KANSAS C DTWN  CLOUDY    41  33  73 NW13G21   29.86R
LEE`S SUMMIT   CLOUDY    40  34  79 NW15G26   29.85R
ST JOSEPH      CLOUDY    38  34  85 NW17      29.86R WCI  28
CHILLICOTHE      N/A     41  36  82 NW9G22    29.78R
KIRKSVILLE     CLOUDY    42  38  85 NW18G29   29.70R

$$
MOZ066>068-077>081-088>096-101>105-011200-
...SOUTHWEST MISSOURI...

CITY           SKY/WX    TMP DP  RH WIND       PRES   REMARKS
SPRINGFIELD    PTCLDY    44  39  82 NW12G20   29.88R
JOPLIN         CLEAR     41  37  86 W9        29.96R
BRANSON        PTCLDY    45  41  87 W8        29.88R

$$
MOZ032>034-039>042-045>050-055>058-069>072-011200-
...CENTRAL MISSOURI...

CITY           SKY/WX    TMP DP  RH WIND       PRES   REMARKS
COLUMBIA       MOCLDY    44  41  89 W14       29.76R
JEFFERSON CITY MOCLDY    45  41  86 W18       29.77R
ROLLA          LGT RAIN  47  45  93 W22G29    29.73R FOG
SEDALIA        PTCLDY    42  38  85 W15G22    29.82R
WHITEMAN AFB   MOCLDY    40  40 100 NW16      29.82R
OSAGE BEACH    CLOUDY    45  40  82 W16G22    29.82R

$$
MOZ051-052-059>065-011200-
...EAST CENTRAL MISSOURI...

CITY           SKY/WX    TMP DP  RH WIND       PRES   REMARKS
ST LOUIS INTL  CLOUDY    55  49  80 W17       29.62R
SPIRIT OF STL  CLOUDY    53  50  89 W10       29.63R
ST CHARLES     MOCLDY    53  49  86 W14       29.61R

$$
MOZ072>076-082>087-097>100-106>115-011200-
...SOUTH CENTRAL AND SOUTHEAST MISSOURI...

CITY           SKY/WX    TMP DP  RH WIND       PRES   REMARKS
CAPE GIRARDEAU HVY RAIN  58  53  84 W41G60    29.74R
FARMINGTON     CLOUDY    57  50  77 W15G22    29.65F
POPLAR BLUFF   LGT RAIN  61  55  81 W10       29.69F
WEST PLAINS    MOCLDY    54  48  80 W22       29.77R

$$




USA.gov is the U.S. government's official web portal to all federal, state and local government web resources and services.